Location: Asheville, NC
(35.6000°N, 82.5500°W)
Time: 09:04:24
(UTC-04:00)

SO-50 - Pass Details

Date: 07 January 2018
Orbit: 602 x 685 km, 64.6° (Epoch: 24 April)

Event Time Altitude Azimuth Distance (km) Brightness Sun altitude
Rises 19:01:48 0° 323° (NW) 2,981 ? -17.6°
Reaches altitude 10° 19:04:10 10° 317° (NW) 2,078 ? -18.1°
Maximum altitude 19:08:39 45° 245° (WSW) 912 ? -19.0°
Drops below altitude 10° 19:13:13 10° 173° (S) 2,105 ? -19.9°
Sets 19:15:38 0° 167° (SSE) 3,022 ? -20.4°
